User: anonymous   Login
Location: Voyageurs National Park
(48.5020°N, 92.9292°W)
Time: 07:09:39
(UTC-05:00)
Language:

SJ-12 - Orbit

View from above orbital plane
View from above orbital plane
View from above satellite
View from above satellite

Ground track
Ground track

The orbit data is extracted from the following two-line orbital elements,

1 36596U 10027A   18175.90887840 -.00000337 +00000-0 -24825-4 0  9995
2 36596 097.6051 172.9585 0010428 219.8242 140.2219 14.96315764437626
Epoch (UTC): 24 June 2018 21:48:47
Eccentricity: 0.0010428
inclination: 97.6051°
perigee height: 571 km
apogee height: 585 km
right ascension of ascending node: 172.9585°
argument of perigee: 219.8242°
revolutions per day: 14.96315764
mean anomaly at epoch: 140.2219°
orbit number at epoch: 43762

The dashed part of the orbit path shows where the satellite is in the earth's shadow,  

DLR